STARLINK-3927 (52569 NORAD) Tracking and Keplerian Element Data
This shows tracking and keplerian element data for the satellite.
Feedback or suggestion? Click here.
Element | Value |
Catalog | 52569 |
Name | STARLINK-3927 |
Epoch Orbit | 130 |
Epoch Day | 167.08334491 |
Epoch Year | 2022 |
RAAN | 128.9929 |
Inclination | 53.2159 |
Eccentricity | 0.0002854 |
Argument of Perigee | 10.3279 |
Mean Anonmoly | 57.7665 |
Mean Motion | 15.73220214 |
Decay Rate | 0.00027697 |
L1 | 1 52569U 22051AN 22167.08334491 .00027697 00000+0 20092-3 0 9993 |
L2 | 2 52569 53.2159 128.9929 0002854 10.3279 57.7665 15.73220214 1302 |
Live tracking and technical data element details for STARLINK-3927 (NORAD 52569). STARLINK-3927 can be tracked NOW for your location showing map with azimuth and elevation plus other details from your city location.
Track the satellite on the map from your city or location and see movement details for azimuth, elevation, latitude, longitude, range, height, and movement on the map or in text.
IsCatalogInMostPopularTable: catalog: 52569, numindb: 3
Update: records affected: 1
GetName: 52569 STARLINK-3927
Hit Count: updated at: Sat, 25 Jun 2022 04:39:10 GMT